Location: Ammerl�gen
(47.2167°N, 9.6000°E)
Time: 15:19:42
(UTC+00:00)

ATLAS 2AS CENTAUR R/B - Pass Details

Date: 21 April 2021
Orbit: 949 x 1263 km, 63.7° (Epoch: 02 May)

Event Time Altitude Azimuth Distance (km) Brightness Sun altitude
Rises 19:35:13 0° 240° (WSW) 4,205 6.2 -12.4°
Reaches altitude 10° 19:38:09 10° 246° (WSW) 3,245 5.7 -12.8°
Maximum altitude 19:45:48 50° 321° (NW) 1,548 4.0 -13.9°
Drops below altitude 10° 19:53:16 10° 36° (NE) 3,166 5.2 -14.9°
Sets 19:56:06 0° 42° (NE) 4,096 5.7 -15.3°
